User: anonymous   Login
Location: Poughquag
(41.6090°N, 73.6820°W)
Time: 11:11:50
(UTC-04:00)
Language:

STARLINK-1261 - Orbit

View from above orbital plane
View from above orbital plane
View from above satellite
View from above satellite

Ground track
Ground track

The orbit data is extracted from the following two-line orbital elements,

1 45571U 20025AS  20221.50001157 -.00482568  00000-0 -11727-1 0  9991
2 45571  52.9999 232.7756 0001166  73.7954 227.9903 15.42322098 17543
Epoch (UTC): 08 August 2020 12:00:01
Eccentricity: 0.0001166
inclination: 52.9999°
perigee height: 438 km
apogee height: 440 km
right ascension of ascending node: 232.7756°
argument of perigee: 73.7954°
revolutions per day: 15.42322098
mean anomaly at epoch: 227.9903°
orbit number at epoch: 1754

The dashed part of the orbit path shows where the satellite is in the earth's shadow,  

DLR